Jaipur, India

6:17 AM IST on July 05, 2015 (GMT +0530)
Jaipur | | Change Station
CLOSE
Current Station
Airport
Location: Jaipur,
Elevation: 1280 ft
Nearby Weather Stations

Elev 1280 ft 26.82 °N, 75.81 °E | Updated 1 hour ago

Haze
Haze
86 °F
Feels Like 90 °F
N
15
Wind Variable Wind from West

Today
High -- | Low -- °F
--% Chance of Precip.
Yesterday
High -- | Low -- °F
Precip. -- in
5:37 AM 7:24 PM
Waning Gibbous, 89% visible
Pressure 29.56 in
Visibility 1.6 miles
Clouds
Heat Index 90 °F
Dew Point 70 °F
Humidity 58%
Rainfall 0.00 in
Snow Depth Not available.
UV Not available.
Pollen Not available.
Air Quality Not available.
Flu Activity Not available.
METAR VIJP 042330Z 27013KT 2500 HZ NSC 30/21 Q1001 NOSIG

More Conditions Fewer Conditions

Pressure 29.56 in
Visibility 1.6 miles
Clouds
Heat Index 90 °F
Dew Point 70 °F
Humidity 58%
Rainfall 0.00 in
Snow Depth Not available.
UV Not available.
Pollen Not available.
Air Quality Not available.
Flu Activity Not available.
METAR VIJP 042330Z 27013KT 2500 HZ NSC 30/21 Q1001 NOSIG

More Conditions Fewer Conditions

10-Day Weather Forecast

×

Almanac

Astronomy

Jul. 05, 2015 Rise Set
Actual Time
Civil Twilight
Nautical Twilight
Astronomical Twilight
Moon
Length of Visible Light
Length of Day
Tomorrow will be .
, % of the Moon is Illuminated

Today's Extremes

Country Highs Country Lows

Community

WunderPhotos

Upload Photos

1,835,125 photos uploaded!

WunderBlogs® & News

Nearby

Air Quality

  Air Quality AQ Index Pollutant
Not available.

Snow Depth

Station Depth Elevation

Earthquake Activity

City Distance Mag. Time & Date
Minimum magnitude displayed is 2.5.

Coastal Water Temperatures

Place Temperature

Stations

Nearby Weather Stations

Station Location Temp. Windchill Dew Point Humidity Wind Precip. Elev Updated Type